This is the latest recevied weather packets stored in our database for station/object KR4KUV. If no packets are shown the sender has not sent any weather packets the latest 10 day(s).
| Time | Temp. | Humidity | Pressure | Rain* | Wind** | Luminosity | Snow |
|---|---|---|---|---|---|---|---|
| 1787919584 | 21.67° C | 99% | 1019.1 hPa | 0 mm | - | 74 W/m² | - |
| 1787919280 | 21.67° C | 99% | 1019 hPa | 0 mm | - | 70 W/m² | - |
| 1787918975 | 21.67° C | 99% | 1019.3 hPa | 0 mm | - | 64 W/m² | - |
| 1787918669 | 21.67° C | 99% | 1019 hPa | 0 mm | - | 52 W/m² | - |
| 1787918367 | 21.67° C | 99% | 1018.9 hPa | 0 mm | - | 60 W/m² | - |
| 1787918062 | 21.11° C | 99% | 1019.1 hPa | 0 mm | - | 48 W/m² | - |
| 1787917757 | 21.11° C | 99% | 1019 hPa | 0 mm | - | 41 W/m² | - |
| 1787917453 | 21.67° C | 99% | 1019.1 hPa | 0 mm | - | 32 W/m² | - |
| 1787917149 | 21.11° C | 99% | 1018.9 hPa | 0 mm | - | 26 W/m² | - |
| 1787916843 | 21.11° C | 99% | 1018.8 hPa | 0 mm | - | 22 W/m² | - |
| 1787916543 | 21.11° C | 99% | 1018.8 hPa | 0 mm | - | 18 W/m² | - |
| 1787916238 | 21.11° C | 99% | 1018.5 hPa | 0 mm | - | 15 W/m² | - |
| 1787915933 | 21.11° C | 99% | 1018.4 hPa | 0 mm | - | 12 W/m² | - |
| 1787915628 | 21.11° C | 99% | 1018.6 hPa | 0 mm | - | 9 W/m² | - |
| 1787915328 | 21.11° C | 99% | 1018.2 hPa | 0 mm | - | 6 W/m² | - |
| 1787915023 | 21.11° C | 99% | 1018.3 hPa | 0 mm | - | 4 W/m² | - |
| 1787914722 | 21.11° C | 99% | 1018.1 hPa | 0 mm | - | 2 W/m² | - |
| 1787914417 | 21.11° C | 99% | 1018.2 hPa | 0 mm | - | 1 W/m² | - |
| 1787914112 | 21.11° C | 99% | 1018.2 hPa | 0 mm | - | 1 W/m² | - |
| 1787913810 | 21.11° C | 99% | 1017.9 hPa | 0 mm | - | 0 W/m² | - |
| 1787913506 | 21.11° C | 99% | 1017.9 hPa | 0 mm | - | 0 W/m² | - |
| 1787913206 | 21.11° C | 99% | 1017.8 hPa | 0 mm | - | 0 W/m² | - |
| 1787912905 | 21.11° C | 99% | 1017.8 hPa | 0 mm | - | 0 W/m² | - |
| 1787912604 | 21.11° C | 99% | 1017.7 hPa | 0 mm | - | 0 W/m² | - |
| 1787912304 | 20.56° C | 99% | 1017.6 hPa | 0 mm | - | 0 W/m² | - |
* Rain latest hour (hover to see other rain measurements)
** Current wind speed in m/s (hover to see current wind gust speed)